Terminal Aerodrome Forecast
Issued by NWS Sterling, VA

Current Version | Previous Version | Text Only | Print | Product List | Glossary Off
Versions: 1 2 3 4 5 6 7 8 9 10 11 12 13 14 15 16 17 18 19 20 21

679
FTUS41 KLWX 252102 AAA
TAFIAD
TAF AMD
KIAD 252102Z 2521/2624 21008KT P6SM SCT050 BKN150
     FM261300 28005KT P6SM SCT250
     FM262300 34006KT P6SM FEW250=

USA.gov is the U.S. government's official web portal to all federal, state and local government web resources and services.